Regional Weather Roundup
Issued by NWS Kansas City/Pleasant Hill, MO

Home | Current Version | Previous Version | Graphics & Text | Print | Product List | Glossary Off
Versions: 1 2 3 4 5 6 7 8 9 10 11 12 13 14 15 16 17 18 19 20 21 22 23 24 25 26 27 28 29 30 31 32 33 34 35 36 37 38 39 40 41 42 43 44 45 46 47 48 49 50

000
ASUS43 KEAX 210011
RWREAX

WEATHER ROUNDUP FOR EASTERN KANSAS AND NORTHWEST MISSOURI
NATIONAL WEATHER SERVICE KANSAS CITY/PLEASANT HILL MO
700 PM CDT SUN APR 20 2014

KSZ040-057-103>105-MOZ028-029-037-043-210100-
...KANSAS CITY METROPOLITAN AREA...

CITY           SKY/WX    TMP DP  RH WIND       PRES   REMARKS
K.C. INTL      CLOUDY    73  53  49 S14       29.98F
6HR MIN TEMP:  72; 6HR MAX TEMP:  77;

K.C. DOWNTOWN  CLOUDY    74  52  46 S13       29.98F
6HR MIN TEMP:  74; 6HR MAX TEMP:  79;

LEES SUMMIT    CLOUDY    73  51  46 S8G21     30.01F
6HR MIN TEMP:  73; 6HR MAX TEMP:  77;

OLATHE - IXD   PTSUNNY   70  53  54 S16       30.02S
6HR MIN TEMP:  70; 6HR MAX TEMP:  77;

OLATHE - OJC   PTSUNNY   70  53  54 S13       30.01S
6HR MIN TEMP:  70; 6HR MAX TEMP:  76;

LAWRENCE       MOSUNNY   73  56  54 S17G24    29.99S

$$

MOZ001>008-011>017-020>025-030>033-038>040-044>046-053-054-210100-
...NORTHERN AND CENTRAL MISSOURI...

CITY           SKY/WX    TMP DP  RH WIND       PRES   REMARKS
ST. JOSEPH     CLOUDY    76  53  44 S14       29.96F
6HR MIN TEMP:  75; 6HR MAX TEMP:  82;

MOSBY          FAIR      73  54  49 S12       29.98F
WARRENSBURG    CLOUDY   N/A N/A N/A S8        30.02S
WHITEMAN AFB   CLOUDY    70  55  58 S8        30.02F
6HR MIN TEMP:  70; 6HR MAX TEMP:  79;

CLINTON        CLOUDY    73  55  53 SW10      30.04S
SEDALIA        CLOUDY    74  51  44 SW7       30.03F
6HR MIN TEMP:  74; 6HR MAX TEMP:  80;

WARSAW         NOT AVBL
MARSHALL         N/A     75  54  46 S6        30.02F
CHILLICOTHE      N/A     76  48  37 S7        30.00F
6HR MIN TEMP:  75; 6HR MAX TEMP:  80;

MOBERLY        CLOUDY    79  46  31 S8        30.02F
KIRKSVILLE     CLOUDY    75  47  36 SW7       30.01F
6HR MIN TEMP:  75; 6HR MAX TEMP:  81;


$$

MOZ041-047>049-056>058-063>065-088>090-097-210100-
...EASTERN AND SOUTHERN MISSOURI...

CITY           SKY/WX    TMP DP  RH WIND       PRES   REMARKS
ST. LOUIS INTL MOCLDY    79  43  27 SE16      30.04F
6HR MIN TEMP:  78; 6HR MAX TEMP:  83;

SPIRIT OF STL  MOCLDY    78  38  23 S5        30.02F
COLUMBIA       CLOUDY    74  51  44 S6        30.02F
JEFFERSON CITY CLOUDY    78  47  33 S6        30.01F
MEXICO         MOCLDY    73  52  46 S8        30.03F
HANNIBAL       PTCLDY    77  41  27 SW3       30.02F
ROLLA          CLOUDY    71  51  49 SW7       30.04F
LEBANON        MOCLDY    75  46  35 W3        30.06S
OSAGE BEACH    CLOUDY    75  48  38 SW6       30.04F
SPRINGFIELD    MOCLDY    73  52  47 CALM      30.05F
BRANSON        CLOUDY    73  48  40 SW3       30.08F
NEVADA         CLOUDY    68  54  60 S5        30.05F
JOPLIN         CLOUDY    71  53  52 VRB6      30.05F
WEST PLAINS    MOCLDY    74  45  35 SE3       30.08F

$$

IAZ060-094-KSZ022-034>040-054-083-096-NEZ052-066-093-210100-
...KANSAS...SOUTHEAST NEBRASKA AND IOWA...

CITY           SKY/WX    TMP DP  RH WIND       PRES   REMARKS
TOPEKA         PTSUNNY   72  55  55 S10       29.99F
6HR MIN TEMP:  72; 6HR MAX TEMP:  80; 6HR PCP: TRACE;

MANHATTAN      CLOUDY    69  58  67 S13       29.96F
EMPORIA        CLOUDY    67  58  72 SE6       29.98F
CHANUTE        PTSUNNY   71  54  54 S14       30.02F
WICHITA        CLOUDY    73  56  54 S17       29.97F
OMAHA          LGT RAIN  70  56  61 S12       29.94R
LINCOLN        CLOUDY    66  59  78 NE5       29.94F
LAMONI         CLOUDY    74  52  46 S14       29.97S
DES MOINES     CLOUDY    78  52  40 S10       29.93F

$$




USA.gov is the U.S. government's official web portal to all federal, state and local government web resources and services.